| time (UTC) | temp F | wind direction | speed MPH | gust MPH | rain 1hr in | rain 24hr in | rain mn in | humidity % | barometer mb |
| 20260507204850 | 62 | 0 | 0.0 | 0.0 | 7.30 | 5.16 | 0.00 | 59 | 1014.2 |
| 20260507204350 | 62 | 0 | 0.0 | 0.0 | 7.72 | 4.97 | 0.00 | 59 | 1014.1 |
| 20260507203850 | 62 | 0 | 0.0 | 0.0 | 7.38 | 4.34 | 0.00 | 59 | 1014.1 |
| 20260507203350 | 62 | 0 | 0.0 | 0.0 | 8.09 | 3.89 | 0.00 | 59 | 1013.9 |
| 20260507202850 | 62 | 0 | 0.0 | 0.0 | 7.66 | 3.26 | 0.00 | 58 | 1014.0 |
| 20260507202350 | 63 | 0 | 0.0 | 0.0 | 7.36 | 2.57 | 0.00 | 58 | 1013.7 |
| 20260507201850 | 63 | 0 | 0.0 | 0.0 | 7.15 | 1.91 | 0.00 | 58 | 1013.6 |
| 20260507201350 | 63 | 0 | 0.0 | 0.0 | 7.58 | 7.11 | 0.00 | 58 | 1013.4 |
| 20260507200850 | 63 | 0 | 0.0 | 0.0 | 6.60 | 7.11 | 0.00 | 57 | 1013.4 |
| 20260507200350 | 64 | 0 | 0.0 | 0.0 | 6.66 | 7.11 | 0.00 | 57 | 1013.3 |
| 20260507195850 | 64 | 0 | 0.0 | 0.0 | 5.56 | 6.62 | 0.00 | 57 | 1013.2 |
| 20260507195350 | 64 | 0 | 0.0 | 0.0 | 7.60 | 6.38 | 0.00 | 57 | 1013.0 |
| 20260507194850 | 64 | 0 | 0.0 | 0.0 | 6.68 | 5.46 | 0.00 | 56 | 1012.9 |
| 20260507194350 | 65 | 0 | 0.0 | 0.0 | 6.83 | 4.99 | 0.00 | 56 | 1012.7 |
| 20260507193850 | 65 | 0 | 0.0 | 0.0 | 6.68 | 4.01 | 0.00 | 56 | 1012.7 |
| 20260507193350 | 65 | 0 | 0.0 | 0.0 | 6.95 | 3.83 | 0.00 | 56 | 1012.6 |
| 20260507192850 | 66 | 0 | 0.0 | 0.0 | 6.36 | 3.24 | 0.00 | 55 | 1012.4 |
| 20260507192350 | 66 | 0 | 0.0 | 0.0 | 6.40 | 2.79 | 0.00 | 55 | 1012.4 |
| 20260507191850 | 66 | 0 | 0.0 | 0.0 | 5.83 | 1.91 | 0.00 | 55 | 1012.1 |
| 20260507191350 | 66 | 0 | 0.0 | 0.0 | 6.83 | 7.11 | 0.00 | 54 | 1012.1 |
| 20260507190850 | 67 | 0 | 0.0 | 0.0 | 6.72 | 7.11 | 0.00 | 54 | 1012.0 |
| 20260507190350 | 67 | 0 | 0.0 | 0.0 | 6.64 | 7.11 | 0.00 | 54 | 1011.9 |
| 20260507185850 | 68 | 0 | 0.0 | 0.0 | 5.01 | 5.91 | 0.00 | 53 | 1011.9 |
| 20260507185350 | 68 | 0 | 0.0 | 0.0 | 5.36 | 5.65 | 0.00 | 53 | 1011.8 |
| 20260507184850 | 68 | 0 | 0.0 | 0.0 | 5.64 | 5.03 | 0.00 | 52 | 1011.8 |
| 20260507184350 | 69 | 0 | 0.0 | 0.0 | 5.40 | 4.79 | 0.00 | 52 | 1011.6 |
| 20260507183850 | 69 | 0 | 0.0 | 0.0 | 5.52 | 4.20 | 0.00 | 52 | 1011.5 |
| 20260507183350 | 70 | 0 | 0.0 | 0.0 | 5.07 | 3.75 | 0.00 | 52 | 1011.4 |
| 20260507182850 | 70 | 0 | 0.0 | 0.0 | 4.95 | 3.32 | 0.00 | 52 | 1011.2 |
| 20260507182350 | 71 | 0 | 0.0 | 0.0 | 5.03 | 2.95 | 0.00 | 52 | 1011.0 |
| 20260507181850 | 71 | 0 | 0.0 | 0.0 | 4.73 | 1.91 | 0.00 | 51 | 1011.1 |
| 20260507181350 | 71 | 0 | 0.0 | 0.0 | 4.60 | 6.87 | 0.00 | 51 | 1011.0 |
| 20260507180850 | 72 | 0 | 0.0 | 0.0 | 4.24 | 6.48 | 0.00 | 50 | 1010.9 |
| 20260507180350 | 72 | 0 | 0.0 | 0.0 | 4.18 | 6.09 | 0.00 | 50 | 1010.8 |
| 20260507175850 | 73 | 0 | 0.0 | 0.0 | 4.54 | 5.48 | 0.00 | 51 | 1010.6 |
| 20260507175350 | 73 | 0 | 0.0 | 0.0 | 4.03 | 4.97 | 0.00 | 52 | 1010.6 |
| 20260507174850 | 73 | 0 | 0.0 | 0.0 | 3.75 | 4.59 | 0.00 | 54 | 1010.6 |
| 20260507174350 | 73 | 0 | 0.0 | 0.0 | 3.38 | 4.20 | 0.00 | 54 | 1010.4 |
| 20260507173850 | 73 | 0 | 0.0 | 0.0 | 3.77 | 3.87 | 0.00 | 53 | 1010.2 |
| 20260507173350 | 73 | 0 | 0.0 | 0.0 | 3.73 | 3.83 | 0.00 | 53 | 1010.1 |
| 20260507172850 | 73 | 0 | 0.0 | 0.0 | 3.07 | 3.12 | 0.00 | 52 | 1010.1 |
| 20260507172350 | 74 | 0 | 0.0 | 0.0 | 2.97 | 2.97 | 0.00 | 52 | 1010.1 |
| 20260507171850 | 74 | 0 | 0.0 | 0.0 | 2.52 | 2.38 | 0.00 | 51 | 1010.0 |
| 20260507171350 | 74 | 0 | 0.0 | 0.0 | 2.73 | 7.46 | 0.00 | 50 | 1010.1 |
| 20260507170850 | 75 | 0 | 0.0 | 0.0 | 2.44 | 7.18 | 0.00 | 50 | 1010.0 |
| 20260507170350 | 75 | 0 | 0.0 | 0.0 | 2.52 | 7.05 | 0.00 | 49 | 1009.9 |
| 20260507165850 | 75 | 0 | 0.0 | 0.0 | 1.61 | 6.14 | 0.00 | 49 | 1009.9 |
| 20260507165350 | 74 | 0 | 0.0 | 0.0 | 2.50 | 6.07 | 0.00 | 49 | 1010.0 |
| 20260507164850 | 75 | 0 | 0.0 | 0.0 | 2.44 | 6.01 | 0.00 | 48 | 1010.1 |
| 20260507164350 | 75 | 0 | 0.0 | 0.0 | 2.22 | 5.61 | 0.00 | 48 | 1009.9 |
| 20260507163850 | 75 | 0 | 0.0 | 0.0 | 2.22 | 5.30 | 0.00 | 47 | 1010.0 |
| 20260507163350 | 75 | 0 | 0.0 | 0.0 | 2.40 | 5.24 | 0.00 | 47 | 1009.9 |
| 20260507162850 | 76 | 0 | 0.0 | 0.0 | 2.36 | 5.20 | 0.00 | 46 | 1009.9 |
| 20260507162350 | 76 | 0 | 0.0 | 0.0 | 2.28 | 5.10 | 0.00 | 46 | 1009.9 |
| 20260507161850 | 75 | 0 | 0.0 | 0.0 | 2.28 | 4.79 | 0.00 | 45 | 1010.0 |
| 20260507161350 | 75 | 0 | 0.0 | 0.0 | 2.40 | 9.93 | 0.00 | 44 | 1009.9 |
| 20260507160850 | 75 | 0 | 0.0 | 0.0 | 2.40 | 9.79 | 0.00 | 43 | 1009.9 |
| 20260507160350 | 75 | 0 | 0.0 | 0.0 | 2.36 | 9.72 | 0.00 | 43 | 1009.9 |
| 20260507155850 | 75 | 0 | 0.0 | 0.0 | 1.63 | 8.77 | 0.00 | 43 | 1009.9 |
| 20260507155350 | 76 | 0 | 0.0 | 0.0 | 1.93 | 8.77 | 0.00 | 43 | 1010.0 |
| 20260507154850 | 76 | 0 | 0.0 | 0.0 | 1.79 | 8.60 | 0.00 | 42 | 1010.1 |
| 20260507154350 | 76 | 0 | 0.0 | 0.0 | 1.93 | 8.58 | 0.00 | 42 | 1010.1 |
| 20260507153850 | 77 | 0 | 0.0 | 0.0 | 1.75 | 8.28 | 0.00 | 43 | 1010.2 |
| 20260507153616 | 77 | 0 | 0.0 | 0.0 | 1.59 | 8.03 | 0.00 | 43 | 1010.1 |
| 20260507153350 | 77 | 0 | 0.0 | 0.0 | 1.59 | 8.03 | 0.00 | 43 | 1010.1 |
| 20260507153218 | 78 | 0 | 0.0 | 0.0 | 1.69 | 8.01 | 0.00 | 43 | 1010.3 |
| 20260507152850 | 78 | 0 | 0.0 | 0.0 | 1.69 | 8.01 | 0.00 | 43 | 1010.3 |
| 20260507152800 | 77 | 0 | 0.0 | 0.0 | 1.59 | 7.71 | 0.00 | 44 | 1010.1 |
| 20260507152350 | 77 | 0 | 0.0 | 0.0 | 1.81 | 7.99 | 0.00 | 44 | 1010.1 |
| 20260507151850 | 77 | 0 | 0.0 | 0.0 | 1.59 | 7.71 | 0.00 | 44 | 1010.1 |
| 20260507151351 | 77 | 0 | 0.0 | 0.0 | 1.59 | 2.72 | 0.00 | 45 | 1010.2 |
| 20260507150850 | 77 | 0 | 0.0 | 0.0 | 1.69 | 2.56 | 0.00 | 43 | 1010.2 |
| 20260507150350 | 77 | 0 | 0.0 | 0.0 | 1.69 | 2.56 | 0.00 | 44 | 1010.3 |
| 20260507145850 | 77 | 0 | 0.0 | 0.0 | 1.54 | 2.34 | 0.00 | 44 | 1010.3 |
| 20260507145350 | 77 | 0 | 0.0 | 0.0 | 1.44 | 2.01 | 0.00 | 43 | 1010.3 |
| 20260507144850 | 77 | 0 | 0.0 | 0.0 | 1.34 | 1.85 | 0.00 | 44 | 1010.4 |
| 20260507144350 | 77 | 0 | 0.0 | 0.0 | 1.38 | 1.83 | 0.00 | 45 | 1010.5 |
| 20260507143850 | 77 | 0 | 0.0 | 0.0 | 1.50 | 1.72 | 0.00 | 44 | 1010.5 |
| 20260507143350 | 77 | 0 | 0.0 | 0.0 | 1.40 | 1.52 | 0.00 | 43 | 1010.4 |
| 20260507142850 | 77 | 0 | 0.0 | 0.0 | 1.34 | 1.46 | 0.00 | 42 | 1010.5 |
| 20260507142350 | 78 | 0 | 0.0 | 0.0 | 1.24 | 1.32 | 0.00 | 43 | 1010.6 |
| 20260507141850 | 78 | 0 | 0.0 | 0.0 | 1.14 | 1.19 | 0.00 | 42 | 1010.4 |
| 20260507141350 | 78 | 0 | 0.0 | 0.0 | 1.24 | 6.21 | 0.00 | 42 | 1010.6 |
| 20260507140850 | 79 | 0 | 0.0 | 0.0 | 1.14 | 6.07 | 0.00 | 42 | 1010.4 |
| 20260507140350 | 79 | 0 | 0.0 | 0.0 | 1.24 | 6.07 | 0.00 | 43 | 1010.6 |
| 20260507135850 | 79 | 0 | 0.0 | 0.0 | 1.03 | 5.78 | 0.00 | 43 | 1010.5 |
| 20260507135351 | 79 | 0 | 0.0 | 0.0 | 1.46 | 5.76 | 0.00 | 43 | 1010.6 |
| 20260507134850 | 79 | 0 | 0.0 | 0.0 | 1.48 | 5.64 | 0.00 | 44 | 1010.7 |
| 20260507134351 | 79 | 0 | 0.0 | 0.0 | 1.57 | 5.62 | 0.00 | 48 | 1010.8 |
| 20260507133850 | 78 | 0 | 0.0 | 0.0 | 1.54 | 5.41 | 0.00 | 51 | 1010.7 |
| 20260507133351 | 77 | 0 | 0.0 | 0.0 | 1.48 | 5.31 | 0.00 | 52 | 1010.8 |
| 20260507132851 | 77 | 0 | 0.0 | 0.0 | 1.57 | 5.27 | 0.00 | 50 | 1010.8 |
| 20260507132351 | 77 | 0 | 0.0 | 0.0 | 1.63 | 5.25 | 0.00 | 51 | 1011.0 |
| 20260507131851 | 77 | 0 | 0.0 | 0.0 | 1.48 | 5.03 | 0.00 | 50 | 1010.9 |
| 20260507131351 | 77 | 0 | 0.0 | 0.0 | 1.63 | 0.17 | 0.00 | 49 | 1011.0 |
| 20260507130851 | 78 | 0 | 0.0 | 0.0 | 1.54 | 0.02 | 0.00 | 49 | 1011.1 |
| 20260507130351 | 77 | 0 | 0.0 | 0.0 | 1.65 | 9.94 | 0.00 | 50 | 1011.0 |
| 20260507125851 | 77 | 0 | 0.0 | 0.0 | 1.36 | 9.62 | 0.00 | 48 | 1011.0 |
| 20260507125351 | 77 | 0 | 0.0 | 0.0 | 1.59 | 9.45 | 0.00 | 46 | 1011.0 |
| 20260507124851 | 78 | 0 | 0.0 | 0.0 | 1.38 | 9.25 | 0.00 | 45 | 1011.0 |
| 20260507124351 | 77 | 0 | 0.0 | 0.0 | 1.36 | 9.13 | 0.00 | 45 | 1011.0 |
| 20260507123851 | 78 | 0 | 0.0 | 0.0 | 1.48 | 9.07 | 0.00 | 45 | 1011.0 |
| 20260507123351 | 78 | 0 | 0.0 | 0.0 | 1.77 | 9.02 | 0.00 | 46 | 1010.9 |
| 20260507122851 | 78 | 0 | 0.0 | 0.0 | 1.57 | 8.82 | 0.00 | 46 | 1011.0 |
| 20260507122351 | 78 | 0 | 0.0 | 0.0 | 1.61 | 8.74 | 0.00 | 47 | 1011.1 |
| 20260507121851 | 78 | 0 | 0.0 | 0.0 | 1.79 | 8.53 | 0.00 | 46 | 1011.0 |
| 20260507121351 | 78 | 0 | 0.0 | 0.0 | 1.83 | 2.67 | 0.00 | 46 | 1010.8 |
| 20260507120851 | 77 | 0 | 0.0 | 0.0 | 1.79 | 2.55 | 0.00 | 49 | 1011.0 |
| 20260507120351 | 76 | 0 | 0.0 | 0.0 | 1.69 | 2.43 | 0.00 | 50 | 1010.9 |
| 20260507115851 | 76 | 0 | 0.0 | 0.0 | 1.52 | 2.12 | 0.00 | 48 | 1010.9 |
| 20260507115351 | 76 | 0 | 0.0 | 0.0 | 1.93 | 2.04 | 0.00 | 48 | 1011.0 |
| 20260507114851 | 76 | 0 | 0.0 | 0.0 | 2.05 | 2.04 | 0.00 | 48 | 1011.1 |
| 20260507114351 | 76 | 0 | 0.0 | 0.0 | 2.03 | 1.76 | 0.00 | 47 | 1011.2 |
| 20260507113851 | 77 | 0 | 0.0 | 0.0 | 1.75 | 1.47 | 0.00 | 48 | 1011.2 |
| 20260507113351 | 77 | 0 | 0.0 | 0.0 | 2.18 | 1.43 | 0.00 | 47 | 1011.4 |
| 20260507112851 | 76 | 0 | 0.0 | 0.0 | 2.36 | 1.41 | 0.00 | 47 | 1011.2 |
| 20260507112351 | 77 | 0 | 0.0 | 0.0 | 2.24 | 1.19 | 0.00 | 47 | 1011.3 |
| 20260507111851 | 77 | 0 | 0.0 | 0.0 | 2.10 | 0.92 | 0.00 | 48 | 1011.4 |
| 20260507111351 | 78 | 0 | 0.0 | 0.0 | 2.79 | 5.98 | 0.00 | 48 | 1011.4 |
| 20260507110851 | 78 | 0 | 0.0 | 0.0 | 2.79 | 5.94 | 0.00 | 49 | 1011.5 |
| 20260507110351 | 78 | 0 | 0.0 | 0.0 | 2.99 | 5.80 | 0.00 | 50 | 1011.4 |
| 20260507105851 | 77 | 0 | 0.0 | 0.0 | 2.65 | 5.31 | 0.00 | 54 | 1011.6 |
| 20260507105351 | 77 | 0 | 0.0 | 0.0 | 3.14 | 5.22 | 0.00 | 56 | 1011.5 |
| 20260507104851 | 77 | 0 | 0.0 | 0.0 | 3.16 | 5.06 | 0.00 | 57 | 1011.4 |
| 20260507104351 | 76 | 0 | 0.0 | 0.0 | 3.44 | 4.92 | 0.00 | 59 | 1011.6 |
| 20260507103851 | 75 | 0 | 0.0 | 0.0 | 3.77 | 4.63 | 0.00 | 57 | 1011.4 |
| 20260507103351 | 75 | 0 | 0.0 | 0.0 | 3.58 | 4.45 | 0.00 | 57 | 1011.7 |
| 20260507102851 | 75 | 0 | 0.0 | 0.0 | 3.30 | 4.14 | 0.00 | 57 | 1011.7 |
| 20260507102351 | 75 | 0 | 0.0 | 0.0 | 3.71 | 4.14 | 0.00 | 54 | 1011.7 |
| 20260507101851 | 74 | 0 | 0.0 | 0.0 | 3.87 | 3.59 | 0.00 | 53 | 1011.8 |
| 20260507101351 | 75 | 0 | 0.0 | 0.0 | 3.42 | 8.34 | 0.00 | 53 | 1012.2 |
| 20260507100851 | 74 | 0 | 0.0 | 0.0 | 3.16 | 8.00 | 0.00 | 53 | 1012.1 |
| 20260507100351 | 74 | 0 | 0.0 | 0.0 | 3.14 | 7.85 | 0.00 | 53 | 1012.1 |
| 20260507095851 | 74 | 0 | 0.0 | 0.0 | 4.34 | 7.32 | 0.00 | 54 | 1012.2 |
| 20260507095351 | 73 | 0 | 0.0 | 0.0 | 4.67 | 7.28 | 0.00 | 57 | 1012.2 |
| 20260507094851 | 73 | 0 | 0.0 | 0.0 | 4.44 | 6.88 | 0.00 | 58 | 1012.3 |
| 20260507094351 | 72 | 0 | 0.0 | 0.0 | 4.20 | 6.63 | 0.00 | 60 | 1012.3 |
| 20260507093851 | 72 | 0 | 0.0 | 0.0 | 4.05 | 6.06 | 0.00 | 60 | 1012.5 |
| 20260507093351 | 71 | 0 | 0.0 | 0.0 | 4.73 | 6.04 | 0.00 | 62 | 1012.5 |
| 20260507092851 | 71 | 0 | 0.0 | 0.0 | 4.67 | 5.69 | 0.00 | 63 | 1012.6 |
| 20260507092351 | 70 | 0 | 0.0 | 0.0 | 4.44 | 5.47 | 0.00 | 65 | 1012.5 |
| 20260507091851 | 69 | 0 | 0.0 | 0.0 | 3.97 | 4.92 | 0.00 | 63 | 1012.7 |
| 20260507091351 | 68 | 0 | 0.0 | 0.0 | 4.97 | 0.67 | 0.00 | 65 | 1012.5 |
| 20260507090851 | 68 | 0 | 0.0 | 0.0 | 4.89 | 0.54 | 0.00 | 63 | 1012.7 |
| 20260507090351 | 68 | 0 | 0.0 | 0.0 | 4.32 | 9.32 | 0.00 | 64 | 1012.8 |
| 20260507085851 | 67 | 0 | 0.0 | 0.0 | 3.32 | 8.18 | 0.00 | 64 | 1012.9 |
| 20260507085351 | 68 | 0 | 0.0 | 0.0 | 3.83 | 7.81 | 0.00 | 65 | 1012.9 |
| 20260507084851 | 67 | 0 | 0.0 | 0.0 | 3.79 | 7.63 | 0.00 | 68 | 1013.0 |
| 20260507084351 | 67 | 0 | 0.0 | 0.0 | 3.85 | 7.49 | 0.00 | 68 | 1012.9 |
| 20260507083851 | 66 | 0 | 0.0 | 0.0 | 3.22 | 6.61 | 0.00 | 68 | 1012.9 |
| 20260507083351 | 66 | 0 | 0.0 | 0.0 | 4.11 | 6.37 | 0.00 | 70 | 1012.9 |
| 20260507082851 | 66 | 0 | 0.0 | 0.0 | 4.79 | 6.22 | 0.00 | 71 | 1012.9 |
| 20260507082351 | 65 | 0 | 0.0 | 0.0 | 5.09 | 6.14 | 0.00 | 71 | 1012.9 |
| 20260507081851 | 65 | 0 | 0.0 | 0.0 | 5.03 | 5.57 | 0.00 | 71 | 1013.2 |
| 20260507081351 | 65 | 0 | 0.0 | 0.0 | 5.32 | 0.89 | 0.00 | 71 | 1013.0 |
| 20260507080851 | 64 | 0 | 0.0 | 0.0 | 5.68 | 0.89 | 0.00 | 72 | 1013.1 |
| 20260507080351 | 64 | 0 | 0.0 | 0.0 | 6.07 | 0.81 | 0.00 | 72 | 1013.2 |
| 20260507075851 | 63 | 0 | 0.0 | 0.0 | 5.91 | 0.24 | 0.00 | 72 | 1013.2 |
| 20260507075351 | 63 | 0 | 0.0 | 0.0 | 6.11 | 9.16 | 0.00 | 73 | 1013.2 |
| 20260507074851 | 62 | 0 | 0.0 | 0.0 | 6.34 | 8.96 | 0.00 | 74 | 1013.4 |
| 20260507074351 | 62 | 0 | 0.0 | 0.0 | 6.42 | 8.71 | 0.00 | 75 | 1013.4 |
| 20260507073851 | 62 | 0 | 0.0 | 0.0 | 6.60 | 7.94 | 0.00 | 76 | 1013.6 |
| 20260507073351 | 61 | 0 | 0.0 | 0.0 | 5.97 | 7.14 | 0.00 | 76 | 1013.6 |
| 20260507072851 | 61 | 0 | 0.0 | 0.0 | 5.26 | 6.37 | 0.00 | 78 | 1013.8 |
| 20260507072351 | 61 | 0 | 0.0 | 0.0 | 5.07 | 5.86 | 0.00 | 79 | 1013.7 |
| 20260507071851 | 60 | 0 | 0.0 | 0.0 | 5.20 | 5.39 | 0.00 | 79 | 1013.8 |
| 20260507071351 | 60 | 0 | 0.0 | 0.0 | 5.13 | 0.83 | 0.00 | 80 | 1013.7 |
| 20260507070851 | 59 | 0 | 0.0 | 0.0 | 4.89 | 0.30 | 0.00 | 80 | 1013.8 |
| 20260507070351 | 58 | 0 | 0.0 | 0.0 | 4.85 | 9.26 | 0.00 | 82 | 1013.8 |
| 20260507065851 | 58 | 0 | 0.0 | 0.0 | 4.38 | 8.63 | 0.00 | 83 | 1013.8 |
| 20260507065351 | 57 | 0 | 0.0 | 0.0 | 4.93 | 8.41 | 0.00 | 83 | 1013.9 |
| 20260507064851 | 56 | 0 | 0.0 | 0.0 | 4.67 | 7.85 | 0.00 | 83 | 1014.0 |
| 20260507064351 | 55 | 0 | 0.0 | 0.0 | 4.85 | 7.55 | 0.00 | 83 | 1014.1 |
| 20260507063851 | 54 | 0 | 0.0 | 0.0 | 4.87 | 6.90 | 0.00 | 83 | 1014.2 |
| 20260507063351 | 54 | 0 | 0.0 | 0.0 | 4.87 | 6.73 | 0.00 | 83 | 1014.1 |
| 20260507062851 | 54 | 0 | 0.0 | 0.0 | 4.71 | 6.35 | 0.00 | 83 | 1014.1 |
| 20260507062351 | 53 | 0 | 0.0 | 0.0 | 4.40 | 5.82 | 0.00 | 83 | 1014.1 |
| 20260507061851 | 53 | 0 | 0.0 | 0.0 | 4.20 | 5.16 | 0.00 | 83 | 1014.2 |
| 20260507061351 | 52 | 0 | 0.0 | 0.0 | 4.58 | 0.79 | 0.00 | 83 | 1014.2 |
| 20260507060851 | 52 | 0 | 0.0 | 0.0 | 4.46 | 0.36 | 0.00 | 83 | 1014.2 |
| 20260507060351 | 52 | 0 | 0.0 | 0.0 | 4.62 | 0.08 | 0.00 | 83 | 1014.1 |
| 20260507055851 | 51 | 0 | 0.0 | 0.0 | 4.28 | 8.77 | 0.00 | 83 | 1014.1 |
| 20260507055351 | 51 | 0 | 0.0 | 0.0 | 4.77 | 8.38 | 0.00 | 83 | 1014.0 |
| 20260507054851 | 51 | 0 | 0.0 | 0.0 | 4.85 | 7.90 | 0.00 | 83 | 1014.2 |
| 20260507054351 | 51 | 0 | 0.0 | 0.0 | 4.79 | 7.30 | 0.00 | 83 | 1014.0 |
| 20260507053851 | 51 | 0 | 0.0 | 0.0 | 5.58 | 7.22 | 0.00 | 83 | 1014.1 |
| 20260507053351 | 50 | 0 | 0.0 | 0.0 | 5.22 | 6.86 | 0.00 | 83 | 1014.0 |
| 20260507052851 | 50 | 0 | 0.0 | 0.0 | 5.15 | 6.61 | 0.00 | 83 | 1013.9 |
| 20260507052351 | 50 | 0 | 0.0 | 0.0 | 5.15 | 6.16 | 0.00 | 83 | 1014.1 |
| 20260507051851 | 50 | 0 | 0.0 | 0.0 | 5.07 | 5.59 | 0.00 | 83 | 1014.0 |
| 20260507051351 | 50 | 0 | 0.0 | 0.0 | 5.48 | 1.40 | 0.00 | 83 | 1013.8 |
| 20260507050851 | 50 | 0 | 0.0 | 0.0 | 5.28 | 1.24 | 0.00 | 83 | 1013.9 |
| 20260507050351 | 50 | 0 | 0.0 | 0.0 | 5.11 | 0.91 | 0.00 | 83 | 1013.8 |
| 20260507045851 | 50 | 0 | 0.0 | 0.0 | 4.69 | 0.03 | 0.00 | 83 | 1013.7 |
| 20260507045351 | 50 | 0 | 0.0 | 0.0 | 5.09 | 9.08 | 0.00 | 83 | 1013.7 |
| 20260507044851 | 50 | 0 | 0.0 | 0.0 | 4.75 | 8.45 | 0.00 | 83 | 1013.5 |
| 20260507044351 | 50 | 0 | 0.0 | 0.0 | 4.54 | 8.02 | 0.00 | 83 | 1013.5 |
| 20260507043851 | 50 | 0 | 0.0 | 0.0 | 4.79 | 7.43 | 0.00 | 83 | 1013.4 |
| 20260507043351 | 50 | 0 | 0.0 | 0.0 | 4.89 | 7.24 | 0.00 | 83 | 1013.5 |
| 20260507042851 | 50 | 0 | 0.0 | 0.0 | 5.03 | 6.86 | 0.00 | 83 | 1013.4 |
| 20260507042351 | 50 | 0 | 0.0 | 0.0 | 4.48 | 6.30 | 0.00 | 83 | 1013.3 |
| 20260507041851 | 50 | 0 | 0.0 | 0.0 | 4.83 | 5.69 | 0.00 | 83 | 1013.4 |
| 20260507041351 | 51 | 0 | 0.0 | 0.0 | 4.52 | 1.18 | 0.00 | 83 | 1013.2 |
| 20260507040851 | 51 | 0 | 0.0 | 0.0 | 4.79 | 0.99 | 0.00 | 83 | 1013.5 |
| 20260507040351 | 51 | 0 | 0.0 | 0.0 | 4.50 | 0.54 | 0.00 | 83 | 1013.3 |
| 20260507035851 | 51 | 0 | 0.0 | 0.0 | 4.26 | 0.08 | 0.00 | 83 | 1013.4 |
| 20260507035351 | 51 | 0 | 0.0 | 0.0 | 4.79 | 8.89 | 0.00 | 83 | 1013.3 |
| 20260507034851 | 51 | 0 | 0.0 | 0.0 | 4.73 | 8.67 | 0.00 | 82 | 1013.4 |
| 20260507034351 | 51 | 0 | 0.0 | 0.0 | 4.75 | 8.36 | 0.00 | 83 | 1013.2 |
| 20260507033851 | 51 | 0 | 0.0 | 0.0 | 4.71 | 7.83 | 0.00 | 83 | 1013.2 |
| 20260507033351 | 51 | 0 | 0.0 | 0.0 | 4.85 | 7.53 | 0.00 | 83 | 1013.1 |
| 20260507032851 | 51 | 0 | 0.0 | 0.0 | 4.73 | 7.02 | 0.00 | 83 | 1013.1 |
| 20260507032351 | 51 | 0 | 0.0 | 0.0 | 4.75 | 6.55 | 0.00 | 83 | 1013.1 |
| 20260507031851 | 51 | 0 | 0.0 | 0.0 | 5.36 | 6.06 | 0.00 | 83 | 1013.0 |
| 20260507031351 | 51 | 0 | 0.0 | 0.0 | 4.99 | 1.65 | 0.00 | 83 | 1013.0 |
| 20260507030851 | 51 | 0 | 0.0 | 0.0 | 5.17 | 1.46 | 0.00 | 83 | 1013.0 |
| 20260507030351 | 51 | 0 | 0.0 | 0.0 | 5.13 | 1.24 | 0.00 | 83 | 1013.0 |
| 20260507025851 | 52 | 0 | 0.0 | 0.0 | 4.77 | 0.38 | 0.00 | 83 | 1013.0 |
| 20260507025351 | 52 | 0 | 0.0 | 0.0 | 5.11 | 9.36 | 0.00 | 83 | 1013.0 |
| 20260507024851 | 52 | 0 | 0.0 | 0.0 | 5.36 | 9.04 | 0.00 | 82 | 1013.0 |
| 20260507024352 | 52 | 0 | 0.0 | 0.0 | 5.40 | 8.71 | 0.00 | 82 | 1013.2 |
| 20260507023852 | 52 | 0 | 0.0 | 0.0 | 5.42 | 8.14 | 0.00 | 82 | 1013.0 |
| 20260507023352 | 52 | 0 | 0.0 | 0.0 | 5.60 | 7.75 | 0.00 | 82 | 1013.0 |
| 20260507022852 | 52 | 0 | 0.0 | 0.0 | 5.44 | 7.24 | 0.00 | 82 | 1013.0 |
| 20260507022352 | 52 | 0 | 0.0 | 0.0 | 5.28 | 6.79 | 0.00 | 83 | 1012.9 |
| 20260507021852 | 52 | 0 | 0.0 | 0.0 | 4.89 | 6.12 | 0.00 | 83 | 1013.0 |
| 20260507021352 | 52 | 0 | 0.0 | 0.0 | 5.56 | 1.85 | 0.00 | 82 | 1012.9 |
| 20260507020852 | 52 | 0 | 0.0 | 0.0 | 5.26 | 1.85 | 0.00 | 83 | 1013.0 |
| 20260507020352 | 52 | 0 | 0.0 | 0.0 | 5.01 | 1.42 | 0.00 | 83 | 1012.9 |
| 20260507015852 | 52 | 0 | 0.0 | 0.0 | 5.52 | 0.69 | 0.00 | 82 | 1013.0 |
| 20260507015352 | 52 | 0 | 0.0 | 0.0 | 5.46 | 0.30 | 0.00 | 83 | 1013.0 |
| 20260507014852 | 53 | 0 | 0.0 | 0.0 | 5.24 | 9.22 | 0.00 | 83 | 1012.9 |
| 20260507014352 | 53 | 0 | 0.0 | 0.0 | 5.03 | 8.63 | 0.00 | 82 | 1013.0 |
| 20260507013852 | 53 | 0 | 0.0 | 0.0 | 5.73 | 8.18 | 0.00 | 83 | 1012.8 |
| 20260507013352 | 53 | 0 | 0.0 | 0.0 | 5.75 | 7.69 | 0.00 | 83 | 1012.6 |
| 20260507012852 | 53 | 0 | 0.0 | 0.0 | 5.64 | 7.32 | 0.00 | 82 | 1012.9 |
| 20260507012352 | 53 | 0 | 0.0 | 0.0 | 5.56 | 7.04 | 0.00 | 82 | 1012.6 |
| 20260507011852 | 53 | 0 | 0.0 | 0.0 | 5.32 | 6.41 | 0.00 | 82 | 1012.6 |
| 20260507011352 | 53 | 0 | 0.0 | 0.0 | 5.81 | 1.85 | 0.00 | 82 | 1012.5 |
| 20260507010852 | 53 | 0 | 0.0 | 0.0 | 6.01 | 1.85 | 0.00 | 82 | 1012.4 |
| 20260507010352 | 53 | 0 | 0.0 | 0.0 | 6.19 | 1.85 | 0.00 | 82 | 1012.3 |
| 20260507005852 | 53 | 0 | 0.0 | 0.0 | 6.36 | 0.97 | 0.00 | 82 | 1012.4 |
| 20260507005352 | 53 | 0 | 0.0 | 0.0 | 6.05 | 0.42 | 0.00 | 82 | 1012.3 |
| 20260507004852 | 54 | 0 | 0.0 | 0.0 | 6.05 | 0.03 | 0.00 | 82 | 1012.4 |
| 20260507004352 | 54 | 0 | 0.0 | 0.0 | 6.01 | 8.94 | 0.00 | 82 | 1012.2 |
| 20260507003852 | 54 | 0 | 0.0 | 0.0 | 5.71 | 8.26 | 0.00 | 82 | 1012.3 |
| 20260507003352 | 54 | 0 | 0.0 | 0.0 | 5.64 | 7.49 | 0.00 | 82 | 1012.4 |
| 20260507002852 | 54 | 0 | 0.0 | 0.0 | 5.99 | 7.28 | 0.00 | 82 | 1012.2 |
| 20260507002352 | 55 | 0 | 0.0 | 0.0 | 6.19 | 6.90 | 0.00 | 82 | 1012.3 |
| 20260507001852 | 55 | 0 | 0.0 | 0.0 | 6.01 | 6.28 | 0.00 | 82 | 1012.2 |
| 20260507001352 | 55 | 0 | 0.0 | 0.0 | 5.91 | 1.85 | 0.00 | 82 | 1012.5 |
| 20260507000852 | 55 | 0 | 0.0 | 0.0 | 5.99 | 1.85 | 0.00 | 82 | 1012.5 |
| 20260507000352 | 55 | 0 | 0.0 | 0.0 | 6.32 | 1.85 | 0.00 | 82 | 1012.3 |
| 20260506235852 | 55 | 0 | 0.0 | 0.0 | 5.77 | 1.05 | 0.00 | 82 | 1012.3 |
| 20260506235352 | 55 | 0 | 0.0 | 0.0 | 6.11 | 0.73 | 0.00 | 82 | 1012.4 |
| 20260506234852 | 55 | 0 | 0.0 | 0.0 | 5.91 | 9.28 | 0.00 | 82 | 1012.4 |
| 20260506234352 | 55 | 0 | 0.0 | 0.0 | 6.26 | 8.92 | 0.00 | 82 | 1012.3 |
| 20260506233852 | 55 | 0 | 0.0 | 0.0 | 5.93 | 8.20 | 0.00 | 82 | 1012.2 |
| 20260506233352 | 55 | 0 | 0.0 | 0.0 | 6.62 | 7.98 | 0.00 | 82 | 1012.3 |
| 20260506232852 | 55 | 0 | 0.0 | 0.0 | 5.77 | 7.12 | 0.00 | 82 | 1012.3 |
| 20260506232352 | 55 | 0 | 0.0 | 0.0 | 5.73 | 6.63 | 0.00 | 82 | 1012.2 |
| 20260506231852 | 55 | 0 | 0.0 | 0.0 | 6.19 | 6.35 | 0.00 | 82 | 1012.1 |
| 20260506231352 | 55 | 0 | 0.0 | 0.0 | 6.03 | 1.85 | 0.00 | 82 | 1012.2 |
| 20260506230852 | 55 | 0 | 0.0 | 0.0 | 5.46 | 1.85 | 0.00 | 82 | 1012.2 |
| 20260506230352 | 55 | 0 | 0.0 | 0.0 | 5.50 | 1.52 | 0.00 | 82 | 1012.5 |
| 20260506225852 | 55 | 0 | 0.0 | 0.0 | 5.73 | 0.77 | 0.00 | 82 | 1012.2 |
| 20260506225352 | 55 | 0 | 0.0 | 0.0 | 6.01 | 0.48 | 0.00 | 82 | 1012.2 |
| 20260506224852 | 55 | 0 | 0.0 | 0.0 | 5.46 | 9.26 | 0.00 | 82 | 1012.2 |
| 20260506224352 | 55 | 0 | 0.0 | 0.0 | 4.97 | 8.43 | 0.00 | 82 | 1012.0 |
| 20260506223852 | 56 | 0 | 0.0 | 0.0 | 5.44 | 7.92 | 0.00 | 82 | 1012.0 |
| 20260506223352 | 56 | 0 | 0.0 | 0.0 | 5.09 | 7.51 | 0.00 | 82 | 1012.1 |
| 20260506222852 | 56 | 0 | 0.0 | 0.0 | 4.89 | 7.06 | 0.00 | 82 | 1012.1 |
| 20260506222352 | 56 | 0 | 0.0 | 0.0 | 4.67 | 6.63 | 0.00 | 82 | 1012.1 |
| 20260506221852 | 56 | 0 | 0.0 | 0.0 | 4.52 | 6.04 | 0.00 | 82 | 1011.9 |
| 20260506221352 | 56 | 0 | 0.0 | 0.0 | 5.46 | 1.85 | 0.00 | 82 | 1011.8 |
| 20260506220852 | 56 | 0 | 0.0 | 0.0 | 5.22 | 1.65 | 0.00 | 82 | 1011.8 |
| 20260506220352 | 56 | 0 | 0.0 | 0.0 | 5.44 | 1.42 | 0.00 | 82 | 1011.8 |
| 20260506215852 | 56 | 0 | 0.0 | 0.0 | 5.15 | 0.67 | 0.00 | 82 | 1011.9 |
| 20260506215352 | 56 | 0 | 0.0 | 0.0 | 5.79 | 0.10 | 0.00 | 82 | 1011.8 |
| 20260506214852 | 56 | 0 | 0.0 | 0.0 | 6.15 | 9.24 | 0.00 | 82 | 1011.8 |
| 20260506214352 | 56 | 0 | 0.0 | 0.0 | 6.28 | 8.65 | 0.00 | 82 | 1012.0 |
| 20260506213852 | 56 | 0 | 0.0 | 0.0 | 6.13 | 8.10 | 0.00 | 82 | 1011.8 |
| 20260506213352 | 56 | 0 | 0.0 | 0.0 | 6.64 | 7.79 | 0.00 | 82 | 1011.8 |
| 20260506212852 | 56 | 0 | 0.0 | 0.0 | 6.72 | 7.49 | 0.00 | 82 | 1011.8 |
| 20260506212352 | 56 | 0 | 0.0 | 0.0 | 6.70 | 7.14 | 0.00 | 82 | 1011.8 |
| 20260506211852 | 56 | 0 | 0.0 | 0.0 | 6.79 | 6.45 | 0.00 | 82 | 1011.9 |
| 20260506211352 | 56 | 0 | 0.0 | 0.0 | 6.99 | 1.85 | 0.00 | 82 | 1011.7 |
| 20260506210852 | 57 | 0 | 0.0 | 0.0 | 6.60 | 1.85 | 0.00 | 81 | 1011.7 |
| 20260506210352 | 57 | 0 | 0.0 | 0.0 | 6.42 | 1.85 | 0.00 | 81 | 1011.7 |
| 20260506205852 | 57 | 0 | 0.0 | 0.0 | 5.95 | 1.50 | 0.00 | 81 | 1011.6 |
| 20260506205352 | 57 | 0 | 0.0 | 0.0 | 6.26 | 0.95 | 0.00 | 81 | 1011.4 |